Flag for Saudi Arabia Weather past 2 weeks in Riyadh, Saudi Arabia

Now
99 °F

Clear.


Feels Like: 93 °F
Forecast: 85 / 108 °F
Wind: 9 mph from Northeast

Location: King Khaled International Airport

Current Time: Jul 23, 2014 at 3:03:05 AM

Latest Report: Jul 22, 2014 at 8:00 PM


Visibility: 10 mi

Pressure: 29.68 "Hg

Humidity: 10%

Dew point: 34 °F

Location of RiyadhLocation

Historic Weather in Riyadh — Graph

°F

Riyadh temperature yesterday

Maximum temperature yesterday: 108 °F (at 2:00 PM)
Minimum temperature yesterday: 82 °F (at 5:00 AM)
Average temperature yesterday: 97 °F

Past Weeks' High & Low Weather Summary

 TemperatureHumidityPressure
High111 °F (Jul 9, 4:00 PM)26% (Jul 12, 6:00 AM)29.80 "Hg (Jul 12, 6:00 AM)
Low81 °F (Jul 9, 6:00 AM)5% (Jul 10, 2:00 PM)29.59 "Hg (Jul 18, 4:00 PM)
Average97 °F10%29.70 "Hg
* Reported Jul 7 8:00 PM — Jul 22 8:00 PM, Riyadh, Weather by CustomWeather, © 2014

Note: Actual official high and low records may vary slightly from our data, if they occured in-between our weather recording intervals... More about our weather records

Advertising

Riyadh weather history for previous 24 hours

 ConditionsComfort  
Time TempWeatherWind HumidityBarometerVisibility
8:00 PM
Jul 22
99 °FClear.9 mph10%29.68 "Hg10 mi
7:00 PM102 °FClear.13 mph9%29.65 "Hg10 mi
6:00 PM106 °FSunny.2 mph6%29.62 "Hg10 mi
5:00 PM108 °FSunny.9 mph5%29.62 "Hg10 mi
4:00 PM108 °FSunny.9 mph6%29.62 "Hg10 mi
3:00 PM108 °FSunny.No wind7%29.62 "Hg10 mi
2:00 PM108 °FSunny.9 mph7%29.65 "Hg10 mi
1:00 PM104 °FSunny.7 mph8%29.65 "Hg10 mi
12:00 PM104 °FSunny.5 mph8%29.68 "Hg10 mi
11:00 AM102 °FSunny.3 mph9%29.68 "Hg10 mi
10:00 AM100 °FSunny.2 mph10%29.71 "Hg10 mi
9:00 AM95 °FSunny.2 mph12%29.71 "Hg10 mi
8:00 AM91 °FSunny.3 mph13%29.71 "Hg10 mi
7:00 AM86 °FSunny.2 mph17%29.68 "Hg4 mi
6:00 AM82 °FSunny.2 mph19%29.68 "Hg5 mi
5:00 AM82 °FClear.3 mph17%29.65 "Hg5 mi
4:00 AM86 °FClear.6 mph15%29.65 "Hg10 mi
3:00 AM86 °FClear.No wind17%29.65 "Hg10 mi
Weather by CustomWeather, © 2014

See weather overviewHow to use our weather pages